Starlink 1997

operational
NORAD ID: 47592 Int'l Des: 2021-009 Owner: SPXS Country: US Constellation: starlink
LEOCIRCULARSTARLINK_TYPE

Über Starlink 1997

Beschreibung wird geladen...

Live-Position

3D-Globus wird geladen...

Nächste Überflüge

Höhenverlauf

Altitude vs Time

uPlot chart will show altitude changes over time

Zweizeiliger Elementsatz

1 47592U 21009AW 25351.40332201 .00088029 00000-0 17041-2 0 9992
2 47592 53.0522 38.6582 0008695 356.8518 3.2432 15.46973738268285
Epoch: 17. Dez. 2025 • Age: 13 hours

Aktueller Status

Höhe 441.6 km
Geschwindigkeit 7.64 km/s
Subsatellitenpunkt -39.07°S, 179.67°W
Startdatum 4. Feb. 2021
Alter 4.8 years
Typ internet

Technische Details

Klassifizierung Payload
Masse 260.00 kg
Trockenmasse 248.00 kg
Gesamtmasse 260.00 kg
Länge 0.20 m
Durchmesser 2.80 m
Spannweite 9.00 m
Form Box + pan
Hersteller SPXS
Bus-Typ Starlink
Phasenstatus In Orbit
Besitzer/Staat SPXS/US

Große Konstellationen

Loading constellations...